• In Czech Republic
  • List of Countries
  • For 7 days
  • Water Temperature
  • Satellite Maps
  • Weather Map
  • Weather Widgets
  • user-avatar
    Login

    Hourly Weather Punakha

    Today, 25 June, Monday

    Time Temperature Precipitation Wind Pressure Humidity
    00:00 +18°C° 0 mm 0 mps 582 mmHg 89%
    01:00 +18°C° 0 mm 0 mps 581 mmHg 89%
    02:00 +18°C° 0 mm 0 mps 581 mmHg 89%
    03:00 +18°C° 0 mm 0 mps 581 mmHg 89%
    04:00 +18°C° 0 mm 0 mps 581 mmHg 87%
    05:00 +18°C° 0 mm 0 mps 581 mmHg 85%
    06:00 +19°C° 0 mm 0 mps 582 mmHg 76%
    07:00 +22°C° 0 mm 1 mps 582 mmHg 73%
    08:00 +23°C° 0 mm 1 mps 583 mmHg 70%
    09:00 +25°C° 0 mm 2 mps 583 mmHg 66%
    10:00 +26°C° 0 mm 2 mps 583 mmHg 63%
    11:00 +27°C° 0 mm 2 mps 583 mmHg 59%
    12:00 +28°C° 0 mm 3 mps 583 mmHg 56%
    13:00 +28°C° 0 mm 3 mps 583 mmHg 59%
    14:00 +27°C° 0 mm 3 mps 582 mmHg 63%
    15:00 +27°C° 0 mm 3 mps 581 mmHg 66%
    16:00 +26°C° 0 mm 2 mps 581 mmHg 71%
    17:00 +25°C° 0 mm 2 mps 581 mmHg 75%
    18:00 +24°C° 0 mm 2 mps 580 mmHg 80%
    19:00 +23°C° 0 mm 1 mps 580 mmHg 85%
    20:00 +22°C° 0 mm 1 mps 580 mmHg 89%
    21:00 +19°C° 0 mm 0 mps 580 mmHg 94%
    22:00 +19°C° 0 mm 0 mps 580 mmHg 92%
    23:00 +18°C° 0 mm 0 mps 581 mmHg 91%

    Tomorrow, 26 June, Tuesday

    Time Temperature Precipitation Wind Pressure Humidity
    00:00 +18°C° 0 mm 0 mps 581 mmHg 90%
    01:00 +18°C° 0 mm 0 mps 581 mmHg 89%
    02:00 +18°C° 0 mm 0 mps 580 mmHg 88%
    03:00 +20°C° 0 mm 1 mps 580 mmHg 87%
    04:00 +18°C° 0 mm 0 mps 580 mmHg 85%
    05:00 +18°C° 0 mm 0 mps 581 mmHg 83%
    06:00 +19°C° 0 mm 0 mps 581 mmHg 80%
    07:00 +22°C° 0 mm 1 mps 582 mmHg 76%
    08:00 +23°C° 0 mm 1 mps 582 mmHg 71%
    09:00 +25°C° 0 mm 2 mps 583 mmHg 66%
    10:00 +26°C° 0 mm 2 mps 583 mmHg 64%
    11:00 +27°C° 0 mm 2 mps 583 mmHg 62%
    12:00 +28°C° 0 mm 3 mps 584 mmHg 60%
    13:00 +27°C° 0.1 mm 3 mps 583 mmHg 62%
    14:00 +27°C° 0.1 mm 3 mps 583 mmHg 64%
    15:00 +27°C° 0.1 mm 3 mps 582 mmHg 66%
    16:00 +26°C° 0.1 mm 2 mps 582 mmHg 72%
    17:00 +24°C° 0.1 mm 2 mps 581 mmHg 79%
    18:00 +23°C° 0.1 mm 2 mps 581 mmHg 86%
    19:00 +23°C° 0.1 mm 1 mps 581 mmHg 88%
    20:00 +22°C° 0.1 mm 1 mps 582 mmHg 91%
    21:00 +21°C° 0.1 mm 1 mps 582 mmHg 93%
    22:00 +21°C° 0.1 mm 1 mps 582 mmHg 93%
    23:00 +19°C° 0.1 mm 0 mps 582 mmHg 93%

    Day after tomorrow, 27 June, Wednesday

    Time Temperature Precipitation Wind Pressure Humidity
    00:00 +19°C° 0.1 mm 0 mps 582 mmHg 93%
    01:00 +19°C° 0.1 mm 0 mps 582 mmHg 93%
    02:00 +18°C° 0.1 mm 0 mps 582 mmHg 93%
    03:00 +18°C° 0.1 mm 0 mps 582 mmHg 92%
    04:00 +18°C° 0.1 mm 0 mps 582 mmHg 91%
    05:00 +19°C° 0.1 mm 0 mps 582 mmHg 89%
    06:00 +19°C° 0.1 mm 0 mps 582 mmHg 88%
    07:00 +22°C° 0.1 mm 1 mps 583 mmHg 81%
    08:00 +24°C° 0.1 mm 1 mps 584 mmHg 74%
    09:00 +25°C° 0.1 mm 2 mps 585 mmHg 67%
    10:00 +26°C° 0.1 mm 2 mps 585 mmHg 65%
    11:00 +26°C° 0.1 mm 3 mps 585 mmHg 63%
    12:00 +27°C° 0.1 mm 3 mps 585 mmHg 61%
    13:00 +26°C° 0.2 mm 3 mps 584 mmHg 66%
    14:00 +25°C° 0.2 mm 3 mps 584 mmHg 71%
    15:00 +25°C° 0.2 mm 3 mps 583 mmHg 76%
    16:00 +24°C° 0.1 mm 2 mps 583 mmHg 79%
    17:00 +23°C° 0.1 mm 2 mps 582 mmHg 83%
    18:00 +22°C° 0.1 mm 1 mps 582 mmHg 86%
    19:00 +22°C° 0 mm 1 mps 583 mmHg 87%
    20:00 +22°C° 0 mm 1 mps 583 mmHg 87%
    21:00 +21°C° 0 mm 1 mps 583 mmHg 88%
    22:00 +19°C° 0.1 mm 0 mps 583 mmHg 88%
    23:00 +19°C° 0.1 mm 0 mps 583 mmHg 88%

    28 June, Thursday

    Time Temperature Precipitation Wind Pressure Humidity
    00:00 +19°C° 0.1 mm 0 mps 583 mmHg 89%
    01:00 +18°C° 0.1 mm 0 mps 583 mmHg 89%
    02:00 +18°C° 0.1 mm 0 mps 583 mmHg 89%
    03:00 +18°C° 0.1 mm 0 mps 583 mmHg 89%
    04:00 +18°C° 0.1 mm 0 mps 583 mmHg 88%
    05:00 +18°C° 0.1 mm 0 mps 583 mmHg 87%
    06:00 +18°C° 0.1 mm 0 mps 583 mmHg 86%
    07:00 +22°C° 0.1 mm 1 mps 584 mmHg 81%
    08:00 +23°C° 0.1 mm 1 mps 585 mmHg 75%
    09:00 +24°C° 0.1 mm 2 mps 586 mmHg 70%
    10:00 +25°C° 0.1 mm 2 mps 586 mmHg 67%
    11:00 +26°C° 0.1 mm 2 mps 585 mmHg 65%
    12:00 +27°C° 0.1 mm 3 mps 585 mmHg 62%
    13:00 +27°C° 0.1 mm 3 mps 585 mmHg 63%
    14:00 +27°C° 0.1 mm 3 mps 584 mmHg 64%
    15:00 +27°C° 0.1 mm 3 mps 584 mmHg 64%
    16:00 +26°C° 0.1 mm 2 mps 583 mmHg 70%
    17:00 +24°C° 0.1 mm 2 mps 583 mmHg 76%
    18:00 +23°C° 0.1 mm 2 mps 582 mmHg 82%
    19:00 +23°C° 0.1 mm 2 mps 583 mmHg 86%
    20:00 +21°C° 0.1 mm 2 mps 583 mmHg 90%
    21:00 +21°C° 0.1 mm 1 mps 583 mmHg 94%
    22:00 +21°C° 0.2 mm 1 mps 583 mmHg 95%
    23:00 +21°C° 0.2 mm 1 mps 583 mmHg 96%

    29 June, Friday

    Time Temperature Precipitation Wind Pressure Humidity
    00:00 +20°C° 0.2 mm 1 mps 583 mmHg 96%
    01:00 +20°C° 0.2 mm 1 mps 583 mmHg 96%
    02:00 +20°C° 0.2 mm 1 mps 582 mmHg 96%
    03:00 +20°C° 0.2 mm 1 mps 582 mmHg 95%
    04:00 +20°C° 0.5 mm 1 mps 582 mmHg 93%
    05:00 +20°C° 0.5 mm 1 mps 582 mmHg 92%
    06:00 +18°C° 0.5 mm 0 mps 582 mmHg 90%
    07:00 +21°C° 0.5 mm 1 mps 583 mmHg 86%
    08:00 +22°C° 0.5 mm 1 mps 583 mmHg 82%
    09:00 +23°C° 0.5 mm 2 mps 584 mmHg 78%
    10:00 +23°C° 0.3 mm 2 mps 583 mmHg 76%
    11:00 +24°C° 0.3 mm 2 mps 583 mmHg 74%
    12:00 +25°C° 0.3 mm 2 mps 583 mmHg 71%
    13:00 +24°C° 0.1 mm 2 mps 583 mmHg 73%
    14:00 +24°C° 0.1 mm 2 mps 582 mmHg 74%
    15:00 +24°C° 0.1 mm 2 mps 581 mmHg 76%
    16:00 +23°C° 0.1 mm 2 mps 581 mmHg 79%
    17:00 +23°C° 0.1 mm 2 mps 581 mmHg 83%
    18:00 +21°C° 0.1 mm 2 mps 581 mmHg 86%
    19:00 +22°C° 0.1 mm 1 mps 581 mmHg 89%
    20:00 +21°C° 0.1 mm 1 mps 581 mmHg 93%
    21:00 +20°C° 0.1 mm 1 mps 582 mmHg 96%
    22:00 +20°C° 0.3 mm 1 mps 582 mmHg 96%
    23:00 +20°C° 0.3 mm 1 mps 582 mmHg 96%

    30 June, Saturday

    Time Temperature Precipitation Wind Pressure Humidity
    00:00 +20°C° 0.3 mm 1 mps 581 mmHg 96%
    01:00 +20°C° 0.2 mm 1 mps 581 mmHg 96%
    02:00 +20°C° 0.2 mm 1 mps 581 mmHg 95%
    03:00 +20°C° 0.2 mm 1 mps 581 mmHg 94%
    04:00 +20°C° 0.4 mm 1 mps 581 mmHg 92%
    05:00 +20°C° 0.4 mm 1 mps 581 mmHg 90%
    06:00 +20°C° 0.4 mm 1 mps 581 mmHg 89%
    07:00 +21°C° 0.5 mm 1 mps 582 mmHg 85%
    08:00 +21°C° 0.5 mm 2 mps 582 mmHg 81%
    09:00 +23°C° 0.5 mm 2 mps 583 mmHg 77%
    10:00 +24°C° 0.1 mm 2 mps 583 mmHg 75%
    11:00 +24°C° 0.1 mm 2 mps 583 mmHg 72%
    12:00 +25°C° 0.1 mm 2 mps 583 mmHg 70%
    13:00 +25°C° 0.1 mm 2 mps 582 mmHg 73%
    14:00 +24°C° 0.1 mm 2 mps 582 mmHg 75%
    15:00 +24°C° 0.1 mm 2 mps 581 mmHg 78%
    16:00 +23°C° 0.1 mm 2 mps 581 mmHg 83%
    17:00 +21°C° 0.1 mm 2 mps 580 mmHg 88%
    18:00 +20°C° 0.1 mm 2 mps 580 mmHg 94%
    19:00 +21°C° 0.3 mm 1 mps 581 mmHg 95%
    20:00 +21°C° 0.3 mm 1 mps 581 mmHg 95%
    21:00 +20°C° 0.3 mm 1 mps 581 mmHg 96%
    22:00 +20°C° 0.3 mm 1 mps 581 mmHg 96%
    23:00 +20°C° 0.3 mm 1 mps 581 mmHg 95%
    Show more